Weather History for KMFI - September, 2012

Change the Weather History Date:

Sunday, September 9, 2012

  Actual Average Record
Temperature  
Mean Temperature 60 °F -  
Max Temperature 71 °F 75 °F 92 °F (1955)
Min Temperature 50 °F 50 °F 32 °F (1914)
Degree Days  
Heating Degree Days 5    
Growing Degree Days 10 (Base 50)    
Moisture  
Dew Point 48 °F    
Average Humidity 75    
Maximum Humidity 96    
Minimum Humidity 41    
Precipitation  
Precipitation 0.00 in - - ()
Sea Level Pressure  
Sea Level Pressure 30.10 in    
Wind  
Wind Speed 8 mph (NNW)    
Max Wind Speed 13 mph    
Max Gust Speed 22 mph    
Visibility 10 miles    
Events      
Averages and records for this station are not official NWS values.
T = Trace of Precipitation, MM = Missing Value Source: NWS Daily Summary

Daily Weather History Graph

Daily Weather History Graph

Search for Another Location

Airport or City:

Trip Planner

Search our weather history database for the weather conditions in past years. The results will help you decide how hot, cold, wet, or windy it might be!

Date:

Astronomy

Sep. 09, 2012 Rise Set
Actual Time 6:33 AM CDT 7:21 PM CDT
Civil Twilight 6:03 AM CDT 7:51 PM CDT
Nautical Twilight 5:28 AM CDT 8:26 PM CDT
Astronomical Twilight 4:51 AM CDT 9:02 PM CDT
Moon No Moon Rise 3:17 PM CDT (9/9)
Length of Visible Light 13h 47m
Length of Day
12h 48m
Last Quarter, 39% of the Moon is Illuminated
Sep 9
Last Quarter
Sep 15
New
Sep 22
First Quarter
Sep 29
Full
Oct 8
Last Quarter

Hourly Weather History & Observations

Time (CDT) Temp. Dew Point Humidity Pressure Visibility Wind Dir Wind Speed Gust Speed Precip Events Conditions
12:54 AM 52.0 °F 48.9 °F 89% 29.96 in 10.0 mi NNW 6.9 mph - N/A   Clear
1:54 AM 50.0 °F 48.0 °F 93% 29.97 in 10.0 mi NW 6.9 mph - N/A   Partly Cloudy
2:54 AM 51.1 °F 48.9 °F 92% 29.99 in 10.0 mi NNW 9.2 mph - N/A   Clear
3:54 AM 50.0 °F 48.9 °F 96% 30.01 in 10.0 mi NNW 9.2 mph - N/A   Clear
4:13 AM 51.8 °F 48.2 °F 88% 30.01 in 10.0 mi NNW 10.4 mph - N/A   Scattered Clouds
4:54 AM 52.0 °F 50.0 °F 93% 30.04 in 10.0 mi North 9.2 mph - N/A   Overcast
5:36 AM 51.8 °F 50.0 °F 94% 30.03 in 10.0 mi NNW 5.8 mph - N/A   Scattered Clouds
5:54 AM 51.1 °F 48.9 °F 92% 30.05 in 10.0 mi NNW 5.8 mph - N/A   Partly Cloudy
6:54 AM 51.1 °F 48.9 °F 92% 30.09 in 10.0 mi NNW 12.7 mph - N/A   Partly Cloudy
7:07 AM 51.8 °F 48.2 °F 88% 30.08 in 10.0 mi NNW 11.5 mph - N/A   Mostly Cloudy
7:50 AM 53.6 °F 51.8 °F 94% 30.10 in 10.0 mi NNW 8.1 mph - N/A   Scattered Clouds
7:54 AM 54.0 °F 51.1 °F 90% 30.12 in 10.0 mi NNW 9.2 mph - N/A   Partly Cloudy
8:54 AM 55.9 °F 51.1 °F 84% 30.13 in 10.0 mi North 9.2 mph - N/A   Scattered Clouds
9:24 AM 57.2 °F 51.8 °F 82% 30.12 in 10.0 mi NNW 10.4 mph - N/A   Scattered Clouds
9:54 AM 59.0 °F 51.1 °F 75% 30.14 in 10.0 mi NNW 11.5 mph - N/A   Scattered Clouds
10:09 AM 60.8 °F 51.8 °F 72% 30.14 in 10.0 mi NW 9.2 mph - N/A   Mostly Cloudy
10:37 AM 60.8 °F 51.8 °F 72% 30.14 in 10.0 mi NNW 8.1 mph - N/A   Scattered Clouds
11:54 AM 66.0 °F 48.9 °F 54% 30.14 in 10.0 mi North 6.9 mph - N/A   Scattered Clouds
12:54 PM 66.9 °F 48.0 °F 51% 30.14 in 10.0 mi NNW 12.7 mph 21.9 mph N/A   Scattered Clouds
1:54 PM 69.1 °F 46.0 °F 44% 30.13 in 10.0 mi WNW 11.5 mph - N/A   Scattered Clouds
2:54 PM 68.0 °F 45.0 °F 43% 30.13 in 10.0 mi West 10.4 mph - N/A   Mostly Cloudy
3:54 PM 68.0 °F 46.0 °F 45% 30.13 in 10.0 mi NW 9.2 mph - N/A   Scattered Clouds
4:54 PM 70.0 °F 45.0 °F 41% 30.12 in 10.0 mi NNW 8.1 mph - N/A   Scattered Clouds
5:54 PM 69.1 °F 45.0 °F 42% 30.12 in 10.0 mi NW 6.9 mph - N/A   Clear
6:54 PM 64.0 °F 46.0 °F 52% 30.12 in 10.0 mi NW 4.6 mph - N/A   Clear
7:54 PM 57.0 °F 46.9 °F 69% 30.13 in 10.0 mi West 3.5 mph - N/A   Clear
8:54 PM 55.0 °F 48.0 °F 77% 30.14 in 10.0 mi Calm Calm - N/A   Clear
9:54 PM 53.1 °F 46.9 °F 80% 30.15 in 10.0 mi Calm Calm - N/A   Clear
10:54 PM 51.1 °F 46.9 °F 86% 30.15 in 10.0 mi Calm Calm - N/A   Clear
11:54 PM 50.0 °F 46.9 °F 89% 30.14 in 10.0 mi Calm Calm - N/A   Clear